[[{"header":{"parameterUnit":"m.s-1","parameterCategory":1,"la1":30.2991,"la2":30.254,"lo1":-89.0895,"lo2":-89.0444,"dy":0.0017,"dx":0.0017,"nx":28,"ny":28,"refTime":"2023-09-11T21:00:00:Z","depth":0,"parameterNumber":2,"parameterNumberName":"U-component_of_WINDS"},"data":[0,0,0,0,0,0,0,0,0,0,0,0,0,0,0,0,0,0,0,0,0,0,0,0,0,0,0,0,0,0,0,0,0,0,0,0,0,0,0,0,0,0,0,0,0,0,0,0,0,0,0,0,0,0,0,0,0,0,-0.6029,-0.6028,0,-0.5993,-0.5992,-0.5992,-0.5962,-0.5962,-0.5961,-0.5961,-0.5927,-0.5926,-0.5925,0,0,0,0,0,0,0,0,0,0,0,0,0,-0.6074,-0.6074,-0.6029,-0.6028,-0.6028,-0.5993,-0.5992,-0.5992,-0.5962,-0.5962,-0.5961,-0.5961,-0.5927,-0.5926,-0.5925,0,0,0,0,0,0,0,0,0,0,0,0,0,-0.6048,-0.6073,-0.6029,-0.6009,-0.6007,-0.5993,-0.5992,-0.5992,-0.5962,-0.5962,-0.5961,-0.5961,-0.5927,-0.5926,-0.5925,-0.5929,0,0,-0.5922,-0.5922,0,0,0,0,0,0,0,0,-0.605,-0.6046,-0.6012,-0.601,-0.6008,-0.5981,-0.5996,-0.5971,-0.5962,-0.5979,-0.5961,-0.5961,-0.5945,-0.5943,-0.5937,-0.5928,-0.5926,-0.5922,-0.5922,-0.5921,-0.5921,0,0,0,0,0,0,0,-0.6051,-0.6048,-0.6014,-0.6012,-0.6009,-0.6002,-0.5998,-0.5991,-0.5966,-0.5978,-0.5975,-0.5971,-0.5944,-0.5938,-0.5936,-0.5926,-0.5922,-0.5922,-0.5921,-0.5921,-0.5919,-0.5919,0,0,0,0,0,0,-0.6056,-0.605,-0.6016,-0.6013,-0.6028,-0.6002,-0.5997,-0.599,-0.5965,-0.5961,-0.5972,-0.597,-0.594,-0.5937,-0.5935,-0.5939,-0.5921,-0.592,-0.592,-0.5918,-0.5919,-0.5919,0,0,0,0,0,0,-0.6057,-0.6053,-0.6017,-0.6031,-0.6026,-0.6002,-0.5994,-0.599,-0.5984,-0.5961,-0.5957,-0.597,-0.594,-0.5936,-0.5931,-0.5937,-0.592,-0.5919,-0.5918,-0.5918,-0.5919,-0.5946,0,0,0,0,0,0,-0.6059,-0.6054,-0.6054,-0.6031,-0.6025,-0.6013,-0.5995,-0.599,-0.5982,-0.598,-0.5959,-0.5955,-0.5939,-0.5933,-0.593,-0.5935,-0.5919,-0.5917,-0.5918,-0.5919,-0.5944,-0.5947,-0.595,0,0,0,0,0,-0.606,-0.6064,-0.6055,-0.6051,-0.6025,-0.6013,-0.601,-0.5991,-0.5983,-0.5984,-0.5969,-0.5955,-0.5937,-0.5932,-0.5929,-0.5934,-0.5916,-0.5918,-0.5919,-0.5943,-0.5947,-0.595,0,0,0,0,0,0,-0.6089,-0.606,-0.605,-0.6045,-0.6032,-0.6008,-0.6009,-0.5996,-0.5985,-0.5983,-0.5961,-0.5957,-0.5954,-0.5944,-0.5939,-0.5938,-0.5925,-0.5925,-0.5944,-0.5948,-0.595,-0.5953,-0.5918,0,0,0,0,0,-0.6095,-0.6086,-0.6062,-0.6061,-0.6054,-0.6033,-0.6027,-0.6014,-0.5999,-0.5994,-0.5979,-0.5966,-0.5957,-0.5952,-0.5942,-0.5943,-0.5938,-0.5945,-0.5948,-0.595,-0.5951,-0.5951,-0.5954,-0.5923,-0.5923,-0.5923,0,0,-0.6106,-0.609,-0.6086,-0.6066,-0.6054,-0.6047,-0.6028,-0.6022,-0.6017,-0.5993,-0.5987,-0.5976,-0.596,-0.5958,-0.5956,-0.5949,-0.5959,-0.5952,-0.5954,-0.5953,-0.5953,-0.5956,-0.5958,-0.5924,-0.5924,-0.5924,0,0,-0.6125,-0.6111,-0.6108,-0.6097,-0.6079,-0.6064,-0.6064,-0.6042,-0.6034,-0.6027,-0.601,-0.6004,-0.5989,-0.5979,-0.5972,-0.5987,-0.5974,-0.5985,-0.6,-0.6,-0.6003,-0.6005,-0.6011,-0.6013,-0.5986,-0.5986,-0.5986,0,-0.6142,-0.613,-0.6109,-0.6103,-0.6096,-0.6073,-0.6072,-0.6062,-0.6042,-0.6037,-0.603,-0.6011,-0.5999,-0.5995,-0.5998,-0.5993,-0.5993,-0.5987,-0.6004,-0.6006,-0.6007,-0.6013,-0.6015,-0.5987,-0.5987,-0.5987,-0.5987,0,-0.6152,-0.6144,-0.6145,-0.6126,-0.6118,-0.6114,-0.6094,-0.6089,-0.6077,-0.6064,-0.6058,-0.6043,-0.603,-0.6028,-0.6016,-0.6022,-0.6019,-0.6008,-0.5995,-0.6012,-0.6017,-0.6019,-0.5989,-0.5989,-0.5988,-0.5988,0,0,-0.6187,-0.6157,-0.6157,-0.6149,-0.6128,-0.6122,-0.6118,-0.6105,-0.6101,-0.6089,-0.6085,-0.6074,-0.6064,-0.6056,-0.6043,-0.6043,-0.6057,-0.6032,-0.6032,-0.6038,-0.6064,-0.6072,-0.6075,-0.6049,-0.6049,-0.6049,-0.6065,0,-0.6202,-0.6193,-0.6174,-0.6171,-0.6164,-0.6143,-0.614,-0.6127,-0.6115,-0.6108,-0.6095,-0.6087,-0.6074,-0.607,-0.6069,-0.6056,-0.6062,-0.6054,-0.6046,-0.6046,-0.6051,-0.6078,-0.6086,-0.6102,-0.6067,-0.6067,-0.6068,0,-0.6218,-0.6207,-0.6202,-0.6182,-0.6179,-0.6176,-0.6163,-0.6156,-0.6142,-0.6133,-0.6125,-0.611,-0.6106,-0.6094,-0.6089,-0.6083,-0.6079,-0.6072,-0.6073,-0.6071,-0.6058,-0.6078,-0.6107,-0.611,-0.607,-0.607,-0.607,0,-0.6245,-0.6228,-0.6224,-0.6217,-0.6193,-0.6192,-0.6182,-0.6167,-0.6161,-0.615,-0.6146,-0.6135,-0.613,-0.6122,-0.6106,-0.6098,-0.6102,-0.6089,-0.6096,-0.6096,-0.6098,-0.6098,-0.6127,-0.6094,-0.6094,-0.6094,-0.6094,0,-0.6264,-0.6263,-0.6235,-0.6233,-0.6231,-0.621,-0.6209,-0.6197,-0.6184,-0.618,-0.6162,-0.6158,-0.6136,-0.613,-0.6118,-0.6116,-0.6113,-0.6107,-0.6103,-0.6108,-0.6109,-0.6105,-0.6104,-0.6095,-0.6095,-0.6095,-0.6095,0,-0.6294,-0.6275,-0.6269,-0.6247,-0.6241,-0.6241,-0.6223,-0.622,-0.6207,-0.6201,-0.6199,-0.6179,-0.6171,-0.6154,-0.6142,-0.6133,-0.6135,-0.6128,-0.6139,-0.6137,-0.6146,-0.6145,-0.6174,-0.6177,-0.6142,-0.6142,-0.6143,0,-0.6307,-0.6305,-0.6283,-0.6278,-0.6269,-0.6262,-0.6255,-0.6235,-0.623,-0.6214,-0.6213,-0.6204,-0.6195,-0.6184,-0.6169,-0.616,-0.6154,-0.6164,-0.6152,-0.6158,-0.6155,-0.6155,-0.6155,-0.6167,-0.6168,-0.6168,-0.6168,0,-0.6333,-0.6324,-0.6315,-0.6303,-0.6296,-0.6286,-0.6274,-0.6272,-0.625,-0.6244,-0.6236,-0.6229,-0.6217,-0.6208,-0.6197,-0.6188,-0.6175,-0.6172,-0.6174,-0.6179,-0.6186,-0.6183,-0.6147,-0.6172,-0.6171,-0.6171,-0.6171,-0.6171,-0.6356,-0.6353,-0.6337,-0.6328,-0.6318,-0.6308,-0.6304,-0.6291,-0.6283,-0.6271,-0.626,-0.6253,-0.6239,-0.6223,-0.6215,-0.6209,-0.6203,-0.6204,-0.6205,-0.6206,-0.6208,-0.6186,-0.6207,-0.6207,-0.6207,-0.6207,-0.6207,0,-0.6381,-0.637,-0.6362,-0.6347,-0.634,-0.6327,-0.6314,-0.631,-0.6303,-0.6291,-0.6283,-0.6274,-0.6266,-0.6251,-0.6241,-0.624,-0.6234,-0.6239,-0.6239,-0.6237,-0.6215,-0.6215,-0.6244,-0.6244,-0.6244,-0.6244,-0.6244,-0.6244,-0.6394,-0.639,-0.6379,-0.637,-0.6359,-0.6351,-0.6345,-0.6336,-0.6327,-0.6317,-0.631,-0.6299,-0.6287,-0.6276,-0.6269,-0.6264,-0.6262,-0.6269,-0.6263,-0.6242,-0.6238,-0.6235,-0.6235,-0.6268,-0.6268,-0.6285,-0.6286,-0.6286]},{"header":{"parameterUnit":"m.s-1","parameterCategory":1,"la1":30.2991,"la2":30.254,"lo1":-89.0895,"lo2":-89.0444,"dy":0.0017,"dx":0.0017,"nx":28,"ny":28,"refTime":"2023-09-11T21:00:00:Z","depth":0,"parameterNumber":3,"parameterNumberName":"V-component_of_WINDS"},"data":[0,0,0,0,0,0,0,0,0,0,0,0,0,0,0,0,0,0,0,0,0,0,0,0,0,0,0,0,0,0,0,0,0,0,0,0,0,0,0,0,0,0,0,0,0,0,0,0,0,0,0,0,0,0,0,0,0,0,3.5001,3.5,0,3.4947,3.4946,3.4945,3.4891,3.489,3.4889,3.4889,3.4831,3.483,3.4829,0,0,0,0,0,0,0,0,0,0,0,0,0,3.5054,3.5053,3.5001,3.5,3.4999,3.4947,3.4946,3.4945,3.4891,3.489,3.4889,3.4888,3.4831,3.483,3.4829,0,0,0,0,0,0,0,0,0,0,0,0,0,3.5018,3.5053,3.5001,3.4966,3.4962,3.4947,3.4946,3.4945,3.4891,3.489,3.4889,3.4888,3.4831,3.483,3.4829,3.4843,0,0,3.4825,3.4824,0,0,0,0,0,0,0,0,3.502,3.5016,3.4972,3.4968,3.4964,3.4924,3.4943,3.4911,3.4891,3.4918,3.4889,3.4887,3.4863,3.4859,3.4851,3.484,3.4838,3.4825,3.4824,3.4824,3.4823,0,0,0,0,0,0,0,3.5023,3.5018,3.4979,3.4971,3.4966,3.4952,3.4946,3.4937,3.4897,3.4916,3.4911,3.4906,3.486,3.4852,3.4849,3.4837,3.4825,3.4824,3.4823,3.4822,3.4834,3.4835,0,0,0,0,0,0,3.5031,3.5021,3.4981,3.4978,3.499,3.4952,3.4945,3.4938,3.4897,3.489,3.4907,3.4904,3.4855,3.4851,3.4847,3.486,3.4824,3.4822,3.4822,3.4833,3.4834,3.4835,0,0,0,0,0,0,3.5032,3.5028,3.4983,3.4998,3.4991,3.4952,3.4945,3.4938,3.493,3.4891,3.4883,3.4906,3.4854,3.4849,3.4844,3.4857,3.4822,3.4821,3.4832,3.4833,3.4835,3.4886,0,0,0,0,0,0,3.5034,3.5029,3.5034,3.4999,3.4991,3.4982,3.4946,3.4937,3.4928,3.4923,3.4888,3.4881,3.4853,3.4847,3.4843,3.4854,3.482,3.483,3.4832,3.4834,3.4883,3.4889,3.4894,0,0,0,0,0,3.5036,3.5051,3.5035,3.503,3.4997,3.4983,3.4978,3.4946,3.4929,3.4934,3.4909,3.4882,3.4857,3.4847,3.4842,3.4853,3.4829,3.4832,3.4834,3.488,3.4888,3.4894,0,0,0,0,0,0,3.5088,3.5045,3.5027,3.5031,3.5011,3.4974,3.4979,3.4956,3.494,3.4936,3.4896,3.4888,3.4888,3.487,3.486,3.4864,3.4839,3.4841,3.4876,3.4883,3.4888,3.4892,3.4819,0,0,0,0,0,3.51,3.5093,3.5056,3.5062,3.5054,3.5018,3.5011,3.4988,3.4966,3.4957,3.4931,3.491,3.4897,3.4889,3.4875,3.4881,3.4871,3.4886,3.4892,3.4897,3.4898,3.4898,3.4904,3.4843,3.4843,3.4843,0,0,3.5124,3.51,3.5098,3.5072,3.5054,3.5047,3.5011,3.5006,3.4999,3.4956,3.495,3.493,3.4904,3.4904,3.4903,3.4889,3.4913,3.49,3.4904,3.4903,3.4902,3.4907,3.4913,3.4845,3.4844,3.4844,0,0,3.5164,3.5146,3.5149,3.5132,3.5106,3.5082,3.5083,3.5049,3.5035,3.5029,3.4995,3.4987,3.4966,3.4948,3.4936,3.497,3.4944,3.4967,3.4996,3.4997,3.5002,3.5006,3.5016,3.5021,3.4968,3.4969,3.4969,0,3.5197,3.5186,3.5153,3.5149,3.5139,3.51,3.5102,3.5087,3.5057,3.5049,3.5035,3.5007,3.4986,3.4982,3.499,3.4982,3.4981,3.497,3.5004,3.5007,3.5011,3.502,3.5025,3.4971,3.4971,3.4971,3.497,0,3.5228,3.522,3.5226,3.5199,3.5188,3.5188,3.5154,3.5147,3.5126,3.5103,3.5097,3.5071,3.505,3.5048,3.5026,3.504,3.5032,3.5011,3.4985,3.502,3.5028,3.5032,3.4975,3.4974,3.4973,3.4973,0,0,3.5298,3.5253,3.5255,3.5242,3.521,3.5203,3.5201,3.5181,3.5176,3.5157,3.5152,3.5136,3.5116,3.5103,3.5079,3.508,3.5107,3.5059,3.5057,3.5067,3.5118,3.5133,3.5138,3.509,3.5091,3.5091,3.512,0,3.5331,3.5324,3.5295,3.5296,3.5288,3.5251,3.5249,3.5228,3.5208,3.5197,3.5174,3.5162,3.5138,3.5129,3.5129,3.5104,3.5116,3.5101,3.5084,3.5084,3.509,3.5142,3.5158,3.5186,3.5123,3.5123,3.5124,0,3.5369,3.5353,3.5354,3.5322,3.5317,3.5316,3.5295,3.5286,3.5262,3.5247,3.5232,3.5206,3.5199,3.5176,3.5166,3.5157,3.5148,3.5134,3.5135,3.513,3.5105,3.5138,3.5194,3.5198,3.5129,3.5129,3.5128,0,3.5419,3.5397,3.5395,3.5385,3.5348,3.5347,3.5331,3.5306,3.5296,3.5279,3.5271,3.5253,3.5243,3.5228,3.5197,3.5183,3.519,3.5164,3.5176,3.5177,3.5177,3.5178,3.5232,3.5175,3.5175,3.5175,3.5175,0,3.5458,3.546,3.5416,3.5415,3.5415,3.5381,3.5382,3.5362,3.5341,3.5333,3.5301,3.5295,3.5255,3.5244,3.5219,3.5214,3.521,3.5196,3.5189,3.5198,3.52,3.5191,3.5187,3.5176,3.5176,3.5175,3.5175,0,3.5513,3.5484,3.5478,3.5444,3.5435,3.5437,3.5407,3.5403,3.5381,3.5373,3.5369,3.5333,3.5318,3.5286,3.5263,3.5247,3.5246,3.5235,3.5255,3.525,3.5263,3.5262,3.5312,3.5316,3.5258,3.5259,3.526,0,3.5539,3.554,3.5505,3.5499,3.5485,3.5475,3.5465,3.5431,3.5422,3.5394,3.5394,3.5377,3.5361,3.534,3.5311,3.5292,3.528,3.5299,3.5276,3.5285,3.5278,3.5278,3.5277,3.5303,3.5304,3.5304,3.5305,0,3.5589,3.5574,3.5562,3.5544,3.5533,3.5518,3.55,3.5496,3.5458,3.5449,3.5434,3.5422,3.5399,3.5382,3.5359,3.5342,3.5316,3.5312,3.5314,3.5322,3.5333,3.5325,3.5266,3.5311,3.531,3.531,3.531,3.5309,3.5629,3.5627,3.5603,3.5589,3.5573,3.5557,3.5552,3.5529,3.5517,3.5495,3.5476,3.5463,3.5438,3.5405,3.5389,3.5377,3.5365,3.5367,3.5368,3.5368,3.5372,3.5336,3.5373,3.5373,3.5373,3.5373,3.5373,0,3.5675,3.5658,3.5646,3.5623,3.5612,3.5591,3.557,3.5562,3.5551,3.5531,3.5517,3.5499,3.5482,3.5453,3.5433,3.543,3.5417,3.5425,3.5424,3.542,3.5385,3.5385,3.5435,3.5435,3.5435,3.5435,3.5435,3.5435,3.5698,3.5694,3.5677,3.5663,3.5646,3.5633,3.5623,3.5608,3.5591,3.5573,3.556,3.5541,3.5516,3.5495,3.5478,3.547,3.5463,3.5475,3.5463,3.5429,3.5423,3.5418,3.5417,3.5474,3.5474,3.5499,3.5499,3.55]}]]